Regional Weather Roundup
Issued by NWS

Home | Current Version | Previous Version | Text Only | Print | Product List | Glossary On
Versions: 1 2 3 4 5 6 7 8 9 10 11 12 13 14 15 16 17 18 19 20 21 22 23 24 25 26 27 28 29 30 31 32 33 34 35 36 37 38 39 40 41 42 43 44 45 46 47 48 49 50
000
ASUS44 KMEG 270510
RWRTN
TENNESSEE HOURLY STATE WEATHER ROUNDUP
NATIONAL WEATHER SERVICE MEMPHIS TN
1200 AM CDT THU APR 27 2017

TNZ002-004-019-021-049-052-054-088>092-270600-
WEST TENNESSEE

CITY           SKY/WX    TMP DP  RH WIND       PRES   REMARKS
MEMPHIS INTL   CLOUDY    62  61  96 S12       29.59R
NWS MEMPHIS      N/A     62 N/A N/A MISG        N/A
JACKSON        TSTM      62  61  96 VRB7      29.58F
DYERSBURG      CLOUDY    61  61 100 SW7       29.57R
SOMERVILLE     PTCLDY    63  61  94 SE5       29.58R
UNION CITY     MOCLDY    61  59  94 E12G20    29.48F
BOLIVAR        CLOUDY    61  61 100 SE6       29.59F
PARIS          CLOUDY    57  55  94 E8        29.63R
HUNTINGDON     CLOUDY    61  61 100 E7        29.60R FOG
LEXINGTON      CLOUDY    61  61 100 CALM      29.64R FOG
SAVANNAH       MOCLDY    63  63 100 S3        29.66R FOG
$$

TNZ008-025-027-028-033-062-065-066-270600-
NORTH MIDDLE TENNESSEE

CITY           SKY/WX    TMP DP  RH WIND       PRES   REMARKS
NASHVILLE      MOCLDY    74  58  57 S20G32    29.62R
PORTLAND       PTCLDY    72  59  64 S15G21    29.61R
CLARKSVILLE    RAIN      61  57  87 NW7       29.64S FOG
SMYRNA         MOCLDY    72  59  63 S13       29.66R
COOKEVILLE     CLEAR     72  57  60 S14       29.67R
GALLATIN       CLEAR     73  59  60 S9        29.67R
CROSSVILLE     CLOUDY    68  55  63 S15G30    29.74S
$$

TNZ061-075-076-078-094-096-097-270600-
SOUTH MIDDLE TENNESSEE

CITY           SKY/WX    TMP DP  RH WIND       PRES   REMARKS
FAYETTEVILLE   CLEAR     72  57  60 S17G26    29.69R
TULLAHOMA      CLEAR     70  55  60 S12G25    29.70R
WINCHESTER     CLEAR     72  57  60 S10       29.71R
MCMINNVILLE    CLEAR     72  57  60 S13       29.67S
COLUMBIA       MOCLDY    72  64  78 SW14      29.64R
SHELBYVILLE    CLEAR     72  61  68 S13       29.68R
$$

TNZ017-018-042-046-047-270600-
NORTHEAST TENNESSEE

CITY           SKY/WX    TMP DP  RH WIND       PRES   REMARKS
TRI CITIES     CLEAR     60  55  83 CALM      29.77F
ELIZABETHTON   CLEAR     61  55  82 CALM      29.77F
$$

TNZ012-013-036-069-073-074-270600-
CENTRAL EAST TENNESSEE

CITY           SKY/WX    TMP DP  RH WIND       PRES   REMARKS
KNOXVILLE      CLEAR     73  54  51 S12       29.74R
OAK RIDGE      CLEAR     71  55  56 VRB3      29.76R
DOWNTOWN KNOXV CLEAR     63  61  94 SW3       29.74S
GATLINBURG     CLEAR     61  57  88 CALM      29.73R
MORRISTOWN     CLEAR     63  59  88 CALM      29.74S
JACKSBORO      CLEAR     73  55  53 S18G31    29.75R
$$

TNZ083-085-099-270600-
SOUTHEAST TENNESSEE

CITY           SKY/WX    TMP DP  RH WIND       PRES   REMARKS
CHATTANOOGA    PTCLDY    72  57  59 S10       29.75R
$$

SKY/WX REPORTED AS FAIR MEANS FEW OR NO CLOUDS BELOW
12 THOUSAND FEET.





USA.gov is the U.S. government's official web portal to all federal, state and local government web resources and services.